Location: *
(46.1200°N, 11.2700°E)
Time: 00:08:00
(UTC+00:00)

CZ-2D R/B - Pass Details

Date: 02 March 2021
Orbit: 521 x 537 km, 97.4° (Epoch: 18 April)

Event Time Altitude Azimuth Distance (km) Brightness Sun altitude
Rises 17:24:29 0° 168° (SSE) 2,637 6.7 -4.6°
Reaches altitude 10° 17:26:34 10° 169° (SSE) 1,755 5.8 -4.9°
Maximum altitude 17:30:22 83° 258° (WSW) 534 3.3 -5.6°
Drops below altitude 10° 17:34:12 10° 346° (NNW) 1,777 6.1 -6.2°
Sets 17:36:19 0° 347° (NNW) 2,674 7.0 -6.6°
